Voltar ao catálogo

STARLINK-5732

AtivoComunicaçõesVLEO
NORAD 55572·PAYLOAD·🇺🇸 United States

Lançado Feb 12, 2023 de Cape Canaveral Space Force Station

Loading…

Próximas Passagens (próximas 24 horas)

TLE

AtualizadoSource: CelesTrak SupGP

Época: Sep 15, 2026, 02:09 UTC

1 55572C 23020D   26258.09006944 -.00026800  00000+0 -97066-3 0  2582
2 55572  43.0043  18.9380 0001467 266.7626 308.9869 15.27592649    16

Acompanhe STARLINK-5732 em tempo real com AllMySat

Download on the App Store